Preview of NWS' New Version of Forecast
This preview is not operational and should not be used for support decisions.

Regional Weather Roundup (RWR)

Issued by National Weather Service (NWS)

                            
000
ASPQ40 PGUM 202310
RWRPQ 
WEATHER ROUNDUP FOR THE MARIANAS AND MICRONESIA
NATIONAL WEATHER SERVICE TIYAN GU
900 AM CHST SUN APR 21 2019

GUZ001>004-210000-
MARIANA ISLANDS-
  
CITY           SKY/WX    TMP DP  RH WIND       PRES   REMARKS
GUAM AIRPORT   MOSUNNY   82  72  69 E15       29.91R                  
ANDERSEN AFB   PTSUNNY   84  73  70 E17       29.91R HX  91           
ROTA AIRPORT   MOSUNNY   82  68  61 E17       29.89S                  
TINIAN AP      MOSUNNY   86  73  66 E16       29.89R HX  93           
SAIPAN AP      CLOUDY    82  73  74 E14       29.90S                  

$$

PMZ161-210000-
REPUBLIC OF PALAU-
  
CITY           SKY/WX    TMP DP  RH WIND       PRES   REMARKS
KOROR AP       MOSUNNY   82  75  78 NE10G20   29.82R                  
KOROR WSO      NOT AVBL                                               

$$

PMZ171>174-210000-
FEDERATED STATES OF MICRONESIA-
  
CITY           SKY/WX    TMP DP  RH WIND       PRES   REMARKS
YAP AIRPORT    PTSUNNY   82  77  83 VRB5      29.84R HX  91           
CHUUK AP       PTSUNNY   84  79  84 VRB7      29.80S HX  96           
POHNPEI AP     CLOUDY    84  77  79 E10       29.84S HX  94           
POHNPEI WSO    CLOUDY    84  75  74 E9G20     29.86F HX  92           
KOSRAE AP      NOT AVBL                                               

$$

PMZ181-210000-
REPUBLIC OF THE MARSHALL ISLANDS-
  
CITY           SKY/WX    TMP DP  RH WIND       PRES   REMARKS
KWAJALEIN AP   MOSUNNY   86  75  70 E14       29.88S HX  95           
MAJURO AP      NOT AVBL                                               
MAJURO WSO     MOSUNNY   84  77  79 E8        29.84F HX  94           

$$